This is the latest recevied weather packets stored in our database for station/object KG4GJX. If no packets are shown the sender has not sent any weather packets the latest 10 day(s).
| Time | Temp. | Humidity | Pressure | Rain* | Wind** | Luminosity | Snow |
|---|---|---|---|---|---|---|---|
| 1787925167 | 23.33° C | 100% | 1018.6 hPa | 0 mm | - | - | - |
| 1787924505 | 23.33° C | 100% | 1018.2 hPa | 0 mm | - | - | - |
| 1787923182 | 22.78° C | 100% | 1018.2 hPa | 0 mm | - | - | - |
| 1787922519 | 22.78° C | 100% | 1017.9 hPa | 0 mm | - | - | - |
| 1787921197 | 21.67° C | 100% | 1017.9 hPa | 0 mm | - | - | - |
| 1787920534 | 21.11° C | 100% | 1017.9 hPa | 0 mm | - | - | - |
| 1787919872 | 20.56° C | 100% | 1017.9 hPa | 0 mm | - | - | - |
| 1787919209 | 20° C | 100% | 1017.9 hPa | 0 mm | - | - | - |
| 1787918547 | 19.44° C | 100% | 1017.9 hPa | 0 mm | - | - | - |
| 1787917225 | 19.44° C | 100% | 1017.6 hPa | 0 mm | - | - | - |
| 1787915242 | 19.44° C | 100% | 1017.2 hPa | 0 mm | - | - | - |
| 1787911940 | 19.44° C | 100% | 1016.9 hPa | 0 mm | - | - | - |
| 1787911277 | 19.44° C | 100% | 1016.5 hPa | 0 mm | - | - | - |
| 1787909954 | 19.44° C | 100% | 1016.5 hPa | 0.25 mm | - | - | - |
| 1787909292 | 20° C | 100% | 1016.5 hPa | 0.25 mm | - | - | - |
| 1787907969 | 19.44° C | 100% | 1016.5 hPa | 0.25 mm | - | - | - |
| 1787906647 | 20° C | 100% | 1016.5 hPa | 0 mm | - | - | - |
| 1787905985 | 19.44° C | 100% | 1016.5 hPa | 0 mm | - | - | - |
| 1787904002 | 20° C | 100% | 1016.2 hPa | 0 mm | - | - | - |
| 1787901518 | 20° C | 100% | 1015.9 hPa | 0 mm | - | - | - |
| 1787900196 | 20° C | 100% | 1016.2 hPa | 0 mm | - | - | - |
| 1787897554 | 20° C | 100% | 1015.9 hPa | 0 mm | - | - | - |
| 1787894911 | 20.56° C | 100% | 1015.9 hPa | 0 mm | - | - | - |
| 1787894249 | 20.56° C | 100% | 1015.5 hPa | 0 mm | - | - | - |
| 1787893586 | 20.56° C | 100% | 1015.9 hPa | 0 mm | - | - | - |
* Rain latest hour (hover to see other rain measurements)
** Current wind speed in m/s (hover to see current wind gust speed)